Location: Hillsboro
(38.3483°N, 97.1938°W)
Time: 08:40:43
(UTC-06:00)

Daily predictions for brighter satellites

Satellite Brightness Start Highest point End
(mag) Time Altitude Azimuth Time Altitude Azimuth Time Altitude Azimuth
Thor Agena Rocket 3.6 17:57:41 10° NNE 18:02:55 75° ESE 18:08:03 10° S
SL-16 R/B 2.6 17:58:18 10° S 18:03:34 43° ESE 18:08:54 10° NE
Haruka 4.2 18:01:40 10° SW 18:05:02 36° SSE 18:12:30 10° E
SPOT 3 Rocket 3.5 18:00:02 10° SSE 18:05:10 80° ENE 18:10:21 10° N
Meteor 2-10 4.2 18:02:18 10° N 18:07:18 50° ENE 18:12:25 10° SSE
SL-14 R/B 3.3 18:06:21 10° S 18:10:16 85° E 18:14:17 10° N
BREEZE-M DEB (TANK) 3.4 18:04:21 10° NW 18:11:53 62° SW 18:14:53 10° SSE
Cosmos 1484 Rocket 3.0 18:08:37 10° SSE 18:12:24 48° ENE 18:16:16 10° N
Cosmos 1340 Rocket 2.9 18:10:29 10° S 18:14:19 54° E 18:18:09 10° NNE
Cosmos 304 Rocket 3.8 18:10:34 10° S 18:15:18 62° ESE 18:20:03 10° NNE
Cosmos 2297 3.9 18:12:32 10° NNW 18:18:05 49° ENE 18:23:36 10° SE
Meteor 1-28 Rocket 3.8 18:17:54 10° NNE 18:21:19 34° E 18:24:42 10° SSE
Lacrosse 4 Rocket 2.9 18:20:17 10° NNE 18:22:50 16° NE 18:25:17 10° E
Cosmos 1151 Rocket 3.5 18:20:07 10° NNW 18:24:22 65° W 18:28:37 10° S
Tiangong 1 3.1 18:24:59 10° S 18:26:52 16° SE 18:28:39 10° ESE
Aureole 2 Rocket 3.5 18:24:05 10° SSW 18:27:44 52° WNW 18:31:44 10° N
Cosmos 2279 Rocket 4.0 18:23:09 10° N 18:29:23 76° E 18:35:37 10° SSE
IDEFIX/ARIANE 42P 4.0 18:27:18 10° S 18:32:13 42° W 18:37:10 10° NNW
Cosmos 372 Rocket 4.3 18:27:12 10° NNW 18:32:17 70° WSW 18:37:21 10° S
Cosmos 2058 3.4 18:32:56 10° SSW 18:37:00 62° W 18:41:04 10° N
Cosmos 773 Rocket 4.3 18:34:28 10° S 18:39:19 44° ESE 18:44:16 10° NNE
NOAA 12 4.4 18:34:38 10° SE 18:39:35 44° ENE 18:44:34 10° N
Cosmos 1805 Rocket 3.5 18:37:04 10° S 18:41:30 81° E 18:45:59 10° N
Cosmos 1461 3.5 18:40:00 10° SW 18:44:06 54° WNW 18:48:07 10° NNE
SKYMED 2 3.7 18:41:03 10° N 18:45:24 77° WNW 18:49:44 10° SSW
Cosmos 2242 Rocket 4.3 18:41:53 10° NNE 18:45:50 31° ENE 18:49:46 10° SE
USA 215 3.8 18:40:52 13° E 18:46:12 38° NNE 18:52:09 10° NW
Nadezhda 4 Rocket 4.0 18:40:55 10° S 18:47:01 59° E 18:53:13 10° NNE
Cosmos 1626 2.0 18:44:28 10° S 18:48:11 75° E 18:51:56 10° N
Cosmos 1900 4.3 18:43:25 10° NNW 18:48:24 82° ENE 18:53:25 10° SSE
Sich 1 3.0 18:50:00 10° S 18:54:25 72° E 18:58:50 10° NNE
BREEZE-M DEB (TANK) 3.4 18:54:02 10° WNW 18:55:54 18° NNW 18:56:46 15° N
Cosmos 1356 Rocket 3.3 18:53:00 10° S 18:56:59 86° W 19:01:00 10° N
Lacrosse 5 rocket 3.1 18:54:10 10° WNW 18:57:37 32° SW 19:01:13 10° S
Aureole 1 Rocket 3.8 18:53:19 10° S 18:58:32 65° ESE 19:05:28 10° NNE
ALOS 2.9 18:57:45 10° SE 19:01:53 32° ENE 19:06:02 10° N
Coronas F rocket 0.9 19:01:44 10° S 19:03:52 64° SSE 19:03:52 64° SSE
Cosmos 1633 Rocket 2.9 19:00:27 10° S 19:04:50 82° E 19:09:15 10° N
Cosmos 1603 3.8 19:02:54 10° S 19:08:21 54° ESE 19:12:04 20° NE
Cosmos 1092 Rocket 4.0 19:03:12 10° S 19:09:25 64° E 19:15:42 10° NNE
FengYun 1-2 T 4.4 19:06:20 10° SE 19:11:35 46° ENE 19:16:50 10° N
Cosmos 292 Rocket 3.8 19:07:20 10° S 19:11:55 52° ESE 19:14:08 28° NE
Cosmos 1455 2.2 19:08:16 10° N 19:12:05 82° W 19:15:54 10° S
Cosmos 1184 Rocket 3.7 19:15:57 10° SSW 19:19:12 50° W 19:22:06 12° N
SJ-6B 2.9 19:19:29 10° S 19:23:34 80° W 19:27:43 10° NNW
Spot 2 Rocket 3.5 19:23:40 10° SSE 19:28:35 56° ENE 19:33:30 10° N
USA 229 DEB 3.8 19:22:42 10° SW 19:29:32 78° WNW 19:34:38 20° NNE
USA 229 3.8 19:22:48 10° SW 19:29:38 79° WNW 19:34:42 20° NNE
Iridium 4 Rocket 3.0 19:27:48 10° S 19:32:18 83° W 19:36:34 10° N
Cosmos 2195 Rocket 4.4 19:26:36 10° S 19:32:36 63° E 19:38:40 10° NNE
FREGAT/IRIS 4.1 19:36:18 10° S 19:39:10 38° W 19:42:04 10° NNW
SL-19 R/B 4.3 19:35:51 10° SSE 19:41:45 88° WSW 19:47:24 10° NNW
NOSS 3-1 (A) 4.0 19:38:18 10° S 19:42:21 34° SE 19:42:21 34° SE
Cosmos 2369 Rocket 3.2 19:39:35 10° N 19:42:50 29° NNE 19:42:50 29° NNE
SL-16 R/B 4.1 19:43:09 10° WSW 19:47:49 26° WNW 19:52:31 10° N
Resurs 01 Rocket 1.6 19:46:08 10° S 19:50:35 82° WSW 19:55:03 10° NNW
Cosmos 1933 Rocket 3.9 19:48:10 10° SSW 19:52:35 65° W 19:53:46 45° NNW
Cosmos 1680 Rocket 3.9 19:55:43 10° SSW 20:00:52 62° WNW 20:02:30 42° N
Lacrosse 4 Rocket 2.4 19:57:54 10° NW 20:01:45 42° WSW 20:01:45 42° WSW
Tiangong 1 4.1 19:59:41 10° WSW 20:00:16 15° WSW 20:00:16 15° WSW
Cosmos 1655 Rocket 3.9 20:00:17 10° S 20:06:40 88° E 20:09:16 39° N
FENGYUN 3A 4.3 20:05:38 10° S 20:10:50 54° W 20:16:08 10° NNW
CZ-4C R/B 4.3 20:05:47 10° N 20:08:40 19° NNE 20:08:40 19° NNE
NOSS 3-1 (C) 3.5 20:15:20 10° SW 20:20:19 69° SW 20:20:19 69° SW
Cosmos 1943 3.8 20:19:35 10° SSW 20:23:49 51° SW 20:23:49 51° SW
USA 215 3.4 20:28:15 63° SSW 20:28:55 67° SW 20:35:27 10° NW
ATLAS 5 CENTAUR R/B 4.3 20:27:29 10° NNW 20:28:58 17° N 20:28:58 17° N
ALOS 4.5 20:35:40 10° SSW 20:39:20 23° W 20:43:02 10° NW
